Fort Worth NAS, TX

10:40 AM CST on November 20, 2017 (GMT -0600)
Fort Worth Naval Air Station Jrb

Weather History for KNFW - August, 2014

Change the Weather History Date:

Friday, August 22, 2014

  Actual Average Record
Temperature  
Mean Temperature 93 °F -  
Max Temperature 104 °F 92 °F 107 °F (2010)
Min Temperature 82 °F 73 °F 66 °F (2012)
Cooling Degree Days 28    
Growing Degree Days 43 (Base 50)    
Moisture  
Dew Point 62 °F    
Average Humidity 40    
Maximum Humidity 69    
Minimum Humidity 18    
Precipitation  
Precipitation 0.00 in - - ()
Sea Level Pressure  
Sea Level Pressure 29.98 in    
Wind  
Wind Speed 15 mph (South)    
Max Wind Speed 22 mph    
Max Gust Speed 28 mph    
Visibility 10 miles    
Events      
Averages and records for this station are not official NWS values.
T = Trace of Precipitation, MM = Missing Value Source: NWS Daily Summary

Daily Weather History Graph

Daily Weather History Graph

Search for Another Location

Airport or City:

Trip Planner

Search our weather history database for the weather conditions in past years. The results will help you decide how hot, cold, wet, or windy it might be!

Date:

Astronomy

Aug. 22, 2014 Rise Set
Actual Time 6:57 AM CDT 8:06 PM CDT
Civil Twilight 6:32 AM CDT 8:32 PM CDT
Nautical Twilight 6:01 AM CDT 9:02 PM CDT
Astronomical Twilight 5:30 AM CDT 9:34 PM CDT
Moon 4:25 AM CDT (8/22) 6:13 PM CDT (8/22)
Length of Visible Light 14h 00m
Length of Day
13h 08m
Waning Crescent, 7% of the Moon is Illuminated
Aug 22
Waning Crescent
Aug 25
New
Sep 2
First Quarter
Sep 8
Full
Sep 15
Last Quarter

Hourly Weather History & Observations

Time (CDT) Temp. Heat Index Dew Point Humidity Pressure Visibility Wind Dir Wind Speed Gust Speed Precip Events Conditions
12:52 AM 89.1 °F 90.0 °F 63.0 °F 42% 29.96 in 10.0 mi South 18.4 mph - N/A   Clear
1:52 AM 88.0 °F 90.3 °F 66.0 °F 48% 29.96 in 10.0 mi South 21.9 mph 27.6 mph N/A   Clear
2:52 AM 87.1 °F 90.6 °F 68.0 °F 53% 29.97 in 10.0 mi North - - N/A   Clear
3:52 AM 84.9 °F 89.4 °F 70.0 °F 61% 29.98 in 10.0 mi South 15.0 mph 23.0 mph N/A   Clear
4:52 AM 84.0 °F 89.0 °F 71.1 °F 65% 29.99 in 10.0 mi South 12.7 mph - N/A   Clear
5:52 AM 82.0 °F 86.3 °F 71.1 °F 69% 30.01 in 10.0 mi South 10.4 mph - N/A   Clear
6:20 AM 82.0 °F 86.3 °F 71.1 °F 69% 30.07 in 10.0 mi South 9.2 mph - N/A   Clear
6:52 AM 82.0 °F 86.3 °F 71.1 °F 69% 30.02 in 10.0 mi South 11.5 mph - N/A   Clear
7:52 AM 82.0 °F 86.3 °F 71.1 °F 69% 30.04 in 10.0 mi South 11.5 mph - N/A   Clear
8:52 AM 84.9 °F 90.1 °F 71.1 °F 63% 30.04 in 10.0 mi South 16.1 mph - N/A   Clear
9:52 AM 89.1 °F 93.7 °F 69.1 °F 52% 30.04 in 10.0 mi SSW 19.6 mph - N/A   Clear
10:52 AM 93.0 °F 94.6 °F 64.0 °F 38% 30.04 in 10.0 mi SSW 18.4 mph 24.2 mph N/A   Clear
11:52 AM 96.1 °F 96.4 °F 61.0 °F 31% 30.03 in 10.0 mi SSW 17.3 mph - N/A   Clear
12:52 PM 99.0 °F 98.6 °F 59.0 °F 26% 30.01 in 10.0 mi SSW 10.4 mph 25.3 mph N/A   Clear
1:52 PM 102.0 °F 101.1 °F 57.0 °F 22% 30.00 in 10.0 mi South 18.4 mph 24.2 mph N/A   Clear
2:52 PM 102.9 °F 101.4 °F 54.0 °F 20% 29.97 in 10.0 mi South 11.5 mph 20.7 mph N/A   Clear
3:36 PM 104.0 °F 102.9 °F 55.0 °F 20% 30.00 in 10.0 mi South 17.3 mph 23.0 mph N/A   Clear
3:52 PM 104.0 °F 101.8 °F 53.1 °F 18% 29.95 in 10.0 mi South 13.8 mph 24.2 mph N/A   Clear
4:52 PM 104.0 °F - 52.0 °F 18% 29.94 in 10.0 mi South 9.2 mph 21.9 mph N/A   Clear
5:52 PM 102.9 °F 101.4 °F 54.0 °F 20% 29.93 in 10.0 mi SSE 13.8 mph - N/A   Clear
6:52 PM 100.9 °F 98.7 °F 53.1 °F 20% 29.92 in 10.0 mi SSE 15.0 mph - N/A   Clear
7:52 PM 99.0 °F 96.9 °F 54.0 °F 22% 29.91 in 10.0 mi SSE 15.0 mph - N/A   Clear
8:52 PM 96.1 °F 93.8 °F 54.0 °F 24% 29.92 in 10.0 mi SSE 10.4 mph - N/A   Clear
9:52 PM 93.9 °F 92.6 °F 57.0 °F 29% 29.94 in 10.0 mi SSE 12.7 mph - N/A   Clear
10:52 PM 91.0 °F 91.9 °F 63.0 °F 39% 29.95 in 10.0 mi SSE 13.8 mph - N/A   Clear
11:52 PM 91.0 °F 92.6 °F 64.0 °F 41% 29.95 in 10.0 mi South 16.1 mph - N/A   Clear